sat.trackr.live / text

‹ back to catalog

STARLINK-5859

NORAD 55915 · 2023-037B

PAYLOAD ACTIVE UNKNOWN

§ Identity

Operator
Country
US
Launch date
2023-03-17
Launch site
AFWTR
Launch vehicle
Mass (kg)
RCS (m²)

Purposes: comms

External: N2YO · Heavens-Above · Gunter

§ Orbital elements

Epoch: 2026-05-25T04:21:10.232352Z

Period
96.11 min
Inclination
69.9989°
Eccentricity
0.0003353
Mean motion
14.98322453 rev/d
Perigee alt
569.7 km
Apogee alt
574.4 km
Semi-major
6,950.2 km
B*
9.1956e-5
RAAN
111.6447°
Arg perigee
267.2726°
Mean anomaly
92.8049°
Rev number
17,562

§ Raw data

STARLINK-58591 55915U 23037B   26145.18136843  .00001004  00000+0  91956-4 0  99902 55915  69.9989 111.6447 0003353 267.2726  92.8049 14.98322453175621

JSON: /api/v1/satellites/55915 · /tle

For live sub-satellite position, see the globe view (requires WebGL).

§ Visibility from observer

Set your observer location to see the next 7 days of passes ≥ 10°. The values pass through the URL so the page stays shareable.

No JS? Fill the form by hand. The geolocation button needs JavaScript.